owner,sensor,date,latitude,longitude,vertical_datum,sea_water_temperature,qcFlag
Chevron,ioos:station:wmo:42385:1,2022-04-01T00:06:00Z,28.3400,-88.2657,29.4,24.4,11111222
Chevron,ioos:station:wmo:42385:1,2022-04-01T00:26:00Z,28.3400,-88.2657,29.4,24.3,11111222
Chevron,ioos:station:wmo:42385:1,2022-04-01T00:46:00Z,28.3400,-88.2657,29.4,24.4,11111222
Chevron,ioos:station:wmo:42385:1,2022-04-01T01:06:00Z,28.3400,-88.2657,29.4,24.3,11111222
Chevron,ioos:station:wmo:42385:1,2022-04-01T01:26:00Z,28.3400,-88.2657,29.4,24.4,11111222
Chevron,ioos:station:wmo:42385:1,2022-04-01T01:46:00Z,28.3400,-88.2657,29.4,24.4,11111222
Chevron,ioos:station:wmo:42385:1,2022-04-01T02:06:00Z,28.3400,-88.2657,29.4,24.2,11111222
Chevron,ioos:station:wmo:42385:1,2022-04-01T02:26:00Z,28.3400,-88.2657,29.4,24.3,11111222
Chevron,ioos:station:wmo:42385:1,2022-04-01T02:46:00Z,28.3400,-88.2657,29.4,24.3,11111222
Chevron,ioos:station:wmo:42385:1,2022-04-01T03:06:00Z,28.3400,-88.2657,29.4,24.4,11111222
Chevron,ioos:station:wmo:42385:1,2022-04-01T03:26:00Z,28.3400,-88.2657,29.4,24.6,11111222
Chevron,ioos:station:wmo:42385:1,2022-04-01T03:46:00Z,28.3400,-88.2657,29.4,24.5,11111222
Chevron,ioos:station:wmo:42385:1,2022-04-01T04:06:00Z,28.3400,-88.2657,29.4,24.3,11111222
Chevron,ioos:station:wmo:42385:1,2022-04-01T04:26:00Z,28.3400,-88.2657,29.4,24.4,11111222
Chevron,ioos:station:wmo:42385:1,2022-04-01T04:46:00Z,28.3400,-88.2657,29.4,24.3,11111222
Chevron,ioos:station:wmo:42385:1,2022-04-01T05:06:00Z,28.3400,-88.2657,29.4,24.1,11111222
Chevron,ioos:station:wmo:42385:1,2022-04-01T05:26:00Z,28.3400,-88.2657,29.4,23.8,11111222
Chevron,ioos:station:wmo:42385:1,2022-04-01T05:46:00Z,28.3400,-88.2657,29.4,24.3,11111222
Chevron,ioos:station:wmo:42385:1,2022-04-01T06:06:00Z,28.3400,-88.2657,29.4,24.2,11111222
Chevron,ioos:station:wmo:42385:1,2022-04-01T06:26:00Z,28.3400,-88.2657,29.4,24.2,11111222
Chevron,ioos:station:wmo:42385:1,2022-04-01T06:46:00Z,28.3400,-88.2657,29.4,24.1,11111222
Chevron,ioos:station:wmo:42385:1,2022-04-01T07:06:00Z,28.3400,-88.2657,29.4,24.2,11111222
Chevron,ioos:station:wmo:42385:1,2022-04-01T07:26:00Z,28.3400,-88.2657,29.4,24.0,11111222
Chevron,ioos:station:wmo:42385:1,2022-04-01T07:46:00Z,28.3400,-88.2657,29.4,24.2,11111222
Chevron,ioos:station:wmo:42385:1,2022-04-01T08:06:00Z,28.3400,-88.2657,29.4,24.2,11111222
Chevron,ioos:station:wmo:42385:1,2022-04-01T08:26:00Z,28.3400,-88.2657,29.4,24.3,11111222
Chevron,ioos:station:wmo:42385:1,2022-04-01T08:46:00Z,28.3400,-88.2657,29.4,24.4,11111222
Chevron,ioos:station:wmo:42385:1,2022-04-01T09:06:00Z,28.3400,-88.2657,29.4,24.4,11111222
Chevron,ioos:station:wmo:42385:1,2022-04-01T09:26:00Z,28.3400,-88.2657,29.4,24.5,11111222
Chevron,ioos:station:wmo:42385:1,2022-04-01T09:46:00Z,28.3400,-88.2657,29.4,24.5,11111222
Chevron,ioos:station:wmo:42385:1,2022-04-01T10:06:00Z,28.3400,-88.2657,29.4,24.7,11111222
Chevron,ioos:station:wmo:42385:1,2022-04-01T10:26:00Z,28.3400,-88.2657,29.4,24.9,11111222
Chevron,ioos:station:wmo:42385:1,2022-04-01T10:46:00Z,28.3400,-88.2657,29.4,24.9,11111222
Chevron,ioos:station:wmo:42385:1,2022-04-01T11:06:00Z,28.3400,-88.2657,29.4,25.1,11111222
Chevron,ioos:station:wmo:42385:1,2022-04-01T11:26:00Z,28.3400,-88.2657,29.4,25.0,11111222
Chevron,ioos:station:wmo:42385:1,2022-04-01T11:46:00Z,28.3400,-88.2657,29.4,25.1,11111222
Chevron,ioos:station:wmo:42385:1,2022-04-01T12:06:00Z,28.3400,-88.2657,29.4,25.1,11111222
Chevron,ioos:station:wmo:42385:1,2022-04-01T12:26:00Z,28.3400,-88.2657,29.4,25.0,11111222
Chevron,ioos:station:wmo:42385:1,2022-04-01T12:46:00Z,28.3400,-88.2657,29.4,25.0,11111222
Chevron,ioos:station:wmo:42385:1,2022-04-01T13:06:00Z,28.3400,-88.2657,29.4,24.8,11111222
Chevron,ioos:station:wmo:42385:1,2022-04-01T13:26:00Z,28.3400,-88.2657,29.4,25.1,11111222
Chevron,ioos:station:wmo:42385:1,2022-04-01T13:46:00Z,28.3400,-88.2657,29.4,25.0,11111222
Chevron,ioos:station:wmo:42385:1,2022-04-01T14:06:00Z,28.3400,-88.2657,29.4,25.1,11111222
Chevron,ioos:station:wmo:42385:1,2022-04-01T14:26:00Z,28.3400,-88.2657,29.4,25.7,11111222
Chevron,ioos:station:wmo:42385:1,2022-04-01T14:46:00Z,28.3400,-88.2657,29.4,25.1,11111222
Chevron,ioos:station:wmo:42385:1,2022-04-01T15:06:00Z,28.3400,-88.2657,29.4,25.1,11111222
Chevron,ioos:station:wmo:42385:1,2022-04-01T15:26:00Z,28.3400,-88.2657,29.4,25.0,11111222
Chevron,ioos:station:wmo:42385:1,2022-04-01T15:46:00Z,28.3400,-88.2657,29.4,25.2,11111222
Chevron,ioos:station:wmo:42385:1,2022-04-01T16:06:00Z,28.3400,-88.2657,29.4,25.6,11111222
Chevron,ioos:station:wmo:42385:1,2022-04-01T16:26:00Z,28.3400,-88.2657,29.4,25.1,11111222
Chevron,ioos:station:wmo:42385:1,2022-04-01T16:46:00Z,28.3400,-88.2657,29.4,25.2,11111222
Chevron,ioos:station:wmo:42385:1,2022-04-01T17:06:00Z,28.3400,-88.2657,29.4,25.3,11111222
Chevron,ioos:station:wmo:42385:1,2022-04-01T17:26:00Z,28.3400,-88.2657,29.4,25.3,11111222
Chevron,ioos:station:wmo:42385:1,2022-04-01T17:46:00Z,28.3400,-88.2657,29.4,25.3,11111222
Chevron,ioos:station:wmo:42385:1,2022-04-01T18:06:00Z,28.3400,-88.2657,29.4,25.3,11111222
Chevron,ioos:station:wmo:42385:1,2022-04-01T18:26:00Z,28.3400,-88.2657,29.4,25.2,11111222
Chevron,ioos:station:wmo:42385:1,2022-04-01T18:46:00Z,28.3400,-88.2657,29.4,25.3,11111222
Chevron,ioos:station:wmo:42385:1,2022-04-01T19:06:00Z,28.3400,-88.2657,29.4,25.3,11111222
Chevron,ioos:station:wmo:42385:1,2022-04-01T19:26:00Z,28.3400,-88.2657,29.4,25.3,11111222
Chevron,ioos:station:wmo:42385:1,2022-04-01T19:46:00Z,28.3400,-88.2657,29.4,25.2,11111222
Chevron,ioos:station:wmo:42385:1,2022-04-01T20:06:00Z,28.3400,-88.2657,29.4,25.3,11111222
Chevron,ioos:station:wmo:42385:1,2022-04-01T20:26:00Z,28.3400,-88.2657,29.4,25.3,11111222
Chevron,ioos:station:wmo:42385:1,2022-04-01T20:46:00Z,28.3400,-88.2657,29.4,25.2,11111222
Chevron,ioos:station:wmo:42385:1,2022-04-01T21:06:00Z,28.3400,-88.2657,29.4,25.2,11111222
Chevron,ioos:station:wmo:42385:1,2022-04-01T21:26:00Z,28.3400,-88.2657,29.4,25.3,11111222
Chevron,ioos:station:wmo:42385:1,2022-04-01T21:46:00Z,28.3400,-88.2657,29.4,25.2,11111222
Chevron,ioos:station:wmo:42385:1,2022-04-01T22:06:00Z,28.3400,-88.2657,29.4,25.3,11111222
Chevron,ioos:station:wmo:42385:1,2022-04-01T22:26:00Z,28.3400,-88.2657,29.4,25.2,11111222
Chevron,ioos:station:wmo:42385:1,2022-04-01T22:46:00Z,28.3400,-88.2657,29.4,25.1,11111222
Chevron,ioos:station:wmo:42385:1,2022-04-01T23:06:00Z,28.3400,-88.2657,29.4,25.1,11111222
Chevron,ioos:station:wmo:42385:1,2022-04-01T23:26:00Z,28.3400,-88.2657,29.4,25.3,11111222
Chevron,ioos:station:wmo:42385:1,2022-04-01T23:46:00Z,28.3400,-88.2657,29.4,25.2,11111222
Chevron,ioos:station:wmo:42385:1,2022-04-02T00:06:00Z,28.3400,-88.2657,29.4,25.2,11111222
Chevron,ioos:station:wmo:42385:1,2022-04-02T00:26:00Z,28.3400,-88.2657,29.4,25.1,11111222
Chevron,ioos:station:wmo:42385:1,2022-04-02T00:46:00Z,28.3400,-88.2657,29.4,25.1,11111222
Chevron,ioos:station:wmo:42385:1,2022-04-02T01:06:00Z,28.3400,-88.2657,29.4,25.2,11111222
Chevron,ioos:station:wmo:42385:1,2022-04-02T01:26:00Z,28.3400,-88.2657,29.4,25.1,11111222
Chevron,ioos:station:wmo:42385:1,2022-04-02T01:46:00Z,28.3400,-88.2657,29.4,25.2,11111222
Chevron,ioos:station:wmo:42385:1,2022-04-02T02:06:00Z,28.3400,-88.2657,29.4,25.1,11111222
Chevron,ioos:station:wmo:42385:1,2022-04-02T02:26:00Z,28.3400,-88.2657,29.4,25.1,11111222
Chevron,ioos:station:wmo:42385:1,2022-04-02T02:46:00Z,28.3400,-88.2657,29.4,26.1,11111222
Chevron,ioos:station:wmo:42385:1,2022-04-02T03:06:00Z,28.3400,-88.2657,29.4,25.0,11111222
Chevron,ioos:station:wmo:42385:1,2022-04-02T03:26:00Z,28.3400,-88.2657,29.4,25.0,11111222
Chevron,ioos:station:wmo:42385:1,2022-04-02T03:46:00Z,28.3400,-88.2657,29.4,25.0,11111222
Chevron,ioos:station:wmo:42385:1,2022-04-02T04:06:00Z,28.3400,-88.2657,29.4,25.0,11111222
Chevron,ioos:station:wmo:42385:1,2022-04-02T04:26:00Z,28.3400,-88.2657,29.4,25.1,11111222
Chevron,ioos:station:wmo:42385:1,2022-04-02T04:46:00Z,28.3400,-88.2657,29.4,25.2,11111222
Chevron,ioos:station:wmo:42385:1,2022-04-02T05:06:00Z,28.3400,-88.2657,29.4,24.9,11111222
Chevron,ioos:station:wmo:42385:1,2022-04-02T05:26:00Z,28.3400,-88.2657,29.4,25.1,11111222
Chevron,ioos:station:wmo:42385:1,2022-04-02T05:46:00Z,28.3400,-88.2657,29.4,25.1,11111222
Chevron,ioos:station:wmo:42385:1,2022-04-02T06:06:00Z,28.3400,-88.2657,29.4,25.0,11111222
Chevron,ioos:station:wmo:42385:1,2022-04-02T06:26:00Z,28.3400,-88.2657,29.4,24.9,11111222
Chevron,ioos:station:wmo:42385:1,2022-04-02T06:46:00Z,28.3400,-88.2657,29.4,24.9,11111222
Chevron,ioos:station:wmo:42385:1,2022-04-02T07:06:00Z,28.3400,-88.2657,29.4,25.0,11111222
Chevron,ioos:station:wmo:42385:1,2022-04-02T07:26:00Z,28.3400,-88.2657,29.4,24.9,11111222
Chevron,ioos:station:wmo:42385:1,2022-04-02T07:46:00Z,28.3400,-88.2657,29.4,24.9,11111222
Chevron,ioos:station:wmo:42385:1,2022-04-02T08:06:00Z,28.3400,-88.2657,29.4,24.9,11111222
Chevron,ioos:station:wmo:42385:1,2022-04-02T08:26:00Z,28.3400,-88.2657,29.4,24.9,11111222
Chevron,ioos:station:wmo:42385:1,2022-04-02T08:46:00Z,28.3400,-88.2657,29.4,25.3,11111222
Chevron,ioos:station:wmo:42385:1,2022-04-02T09:06:00Z,28.3400,-88.2657,29.4,24.9,11111222
Chevron,ioos:station:wmo:42385:1,2022-04-02T09:26:00Z,28.3400,-88.2657,29.4,24.8,11111222
Chevron,ioos:station:wmo:42385:1,2022-04-02T09:46:00Z,28.3400,-88.2657,29.4,24.9,11111222
Chevron,ioos:station:wmo:42385:1,2022-04-02T10:06:00Z,28.3400,-88.2657,29.4,24.8,11111222
Chevron,ioos:station:wmo:42385:1,2022-04-02T10:26:00Z,28.3400,-88.2657,29.4,25.0,11111222
Chevron,ioos:station:wmo:42385:1,2022-04-02T10:46:00Z,28.3400,-88.2657,29.4,24.8,11111222
Chevron,ioos:station:wmo:42385:1,2022-04-02T11:06:00Z,28.3400,-88.2657,29.4,24.7,11111222
Chevron,ioos:station:wmo:42385:1,2022-04-02T11:26:00Z,28.3400,-88.2657,29.4,24.8,11111222
Chevron,ioos:station:wmo:42385:1,2022-04-02T11:46:00Z,28.3400,-88.2657,29.4,24.7,11111222
Chevron,ioos:station:wmo:42385:1,2022-04-02T12:06:00Z,28.3400,-88.2657,29.4,24.9,11111222
Chevron,ioos:station:wmo:42385:1,2022-04-02T12:26:00Z,28.3400,-88.2657,29.4,24.9,11111222
Chevron,ioos:station:wmo:42385:1,2022-04-02T12:46:00Z,28.3400,-88.2657,29.4,24.8,11111222
Chevron,ioos:station:wmo:42385:1,2022-04-02T13:06:00Z,28.3400,-88.2657,29.4,25.0,11111222
Chevron,ioos:station:wmo:42385:1,2022-04-02T13:26:00Z,28.3400,-88.2657,29.4,24.7,11111222
Chevron,ioos:station:wmo:42385:1,2022-04-02T13:46:00Z,28.3400,-88.2657,29.4,24.6,11111222
Chevron,ioos:station:wmo:42385:1,2022-04-02T14:06:00Z,28.3400,-88.2657,29.4,24.5,11111222
Chevron,ioos:station:wmo:42385:1,2022-04-02T14:26:00Z,28.3400,-88.2657,29.4,24.5,11111222
Chevron,ioos:station:wmo:42385:1,2022-04-02T14:46:00Z,28.3400,-88.2657,29.4,24.4,11111222
Chevron,ioos:station:wmo:42385:1,2022-04-02T15:06:00Z,28.3400,-88.2657,29.4,24.4,11111222
Chevron,ioos:station:wmo:42385:1,2022-04-02T15:26:00Z,28.3400,-88.2657,29.4,25.1,11111222
Chevron,ioos:station:wmo:42385:1,2022-04-02T15:46:00Z,28.3400,-88.2657,29.4,24.7,11111222
Chevron,ioos:station:wmo:42385:1,2022-04-02T16:06:00Z,28.3400,-88.2657,29.4,24.5,11111222
Chevron,ioos:station:wmo:42385:1,2022-04-02T16:26:00Z,28.3400,-88.2657,29.4,24.4,11111222
Chevron,ioos:station:wmo:42385:1,2022-04-02T16:46:00Z,28.3400,-88.2657,29.4,24.5,11111222
Chevron,ioos:station:wmo:42385:1,2022-04-02T17:06:00Z,28.3400,-88.2657,29.4,24.5,11111222
Chevron,ioos:station:wmo:42385:1,2022-04-02T17:26:00Z,28.3400,-88.2657,29.4,23.8,11111222
Chevron,ioos:station:wmo:42385:1,2022-04-02T17:46:00Z,28.3400,-88.2657,29.4,24.4,11111222
Chevron,ioos:station:wmo:42385:1,2022-04-02T18:06:00Z,28.3400,-88.2657,29.4,24.3,11111222
Chevron,ioos:station:wmo:42385:1,2022-04-02T18:26:00Z,28.3400,-88.2657,29.4,24.4,11111222
Chevron,ioos:station:wmo:42385:1,2022-04-02T18:46:00Z,28.3400,-88.2657,29.4,24.4,11111222
Chevron,ioos:station:wmo:42385:1,2022-04-02T19:06:00Z,28.3400,-88.2657,29.4,24.3,11111222
Chevron,ioos:station:wmo:42385:1,2022-04-02T19:26:00Z,28.3400,-88.2657,29.4,24.3,11111222
Chevron,ioos:station:wmo:42385:1,2022-04-02T19:46:00Z,28.3400,-88.2657,29.4,24.2,11111222
Chevron,ioos:station:wmo:42385:1,2022-04-02T20:06:00Z,28.3400,-88.2657,29.4,24.3,11111222
Chevron,ioos:station:wmo:42385:1,2022-04-02T20:26:00Z,28.3400,-88.2657,29.4,24.3,11111222
Chevron,ioos:station:wmo:42385:1,2022-04-02T20:46:00Z,28.3400,-88.2657,29.4,24.4,11111222
Chevron,ioos:station:wmo:42385:1,2022-04-02T21:06:00Z,28.3400,-88.2657,29.4,24.3,11111222
Chevron,ioos:station:wmo:42385:1,2022-04-02T21:26:00Z,28.3400,-88.2657,29.4,24.3,11111222
Chevron,ioos:station:wmo:42385:1,2022-04-02T21:46:00Z,28.3400,-88.2657,29.4,24.3,11111222
Chevron,ioos:station:wmo:42385:1,2022-04-02T22:06:00Z,28.3400,-88.2657,29.4,24.4,11111222
Chevron,ioos:station:wmo:42385:1,2022-04-02T22:26:00Z,28.3400,-88.2657,29.4,24.2,11111222
Chevron,ioos:station:wmo:42385:1,2022-04-02T22:46:00Z,28.3400,-88.2657,29.4,24.2,11111222
Chevron,ioos:station:wmo:42385:1,2022-04-02T23:06:00Z,28.3400,-88.2657,29.4,24.3,11111222
Chevron,ioos:station:wmo:42385:1,2022-04-02T23:26:00Z,28.3400,-88.2657,29.4,24.3,11111222
Chevron,ioos:station:wmo:42385:1,2022-04-02T23:46:00Z,28.3400,-88.2657,29.4,24.3,11111222
Chevron,ioos:station:wmo:42385:1,2022-04-03T00:06:00Z,28.3400,-88.2657,29.4,24.0,11111222
Chevron,ioos:station:wmo:42385:1,2022-04-03T00:26:00Z,28.3400,-88.2657,29.4,24.3,11111222
Chevron,ioos:station:wmo:42385:1,2022-04-03T00:46:00Z,28.3400,-88.2657,29.4,24.4,11111222
Chevron,ioos:station:wmo:42385:1,2022-04-03T01:06:00Z,28.3400,-88.2657,29.4,24.3,11111222
Chevron,ioos:station:wmo:42385:1,2022-04-03T01:26:00Z,28.3400,-88.2657,29.4,24.3,11111222
Chevron,ioos:station:wmo:42385:1,2022-04-03T01:46:00Z,28.3400,-88.2657,29.4,24.4,11111222
Chevron,ioos:station:wmo:42385:1,2022-04-03T02:06:00Z,28.3400,-88.2657,29.4,24.2,11111222
Chevron,ioos:station:wmo:42385:1,2022-04-03T02:26:00Z,28.3400,-88.2657,29.4,24.3,11111222
Chevron,ioos:station:wmo:42385:1,2022-04-03T02:46:00Z,28.3400,-88.2657,29.4,24.3,11111222
Chevron,ioos:station:wmo:42385:1,2022-04-03T03:06:00Z,28.3400,-88.2657,29.4,24.4,11111222
Chevron,ioos:station:wmo:42385:1,2022-04-03T03:26:00Z,28.3400,-88.2657,29.4,24.4,11111222
Chevron,ioos:station:wmo:42385:1,2022-04-03T03:46:00Z,28.3400,-88.2657,29.4,24.3,11111222
Chevron,ioos:station:wmo:42385:1,2022-04-03T04:06:00Z,28.3400,-88.2657,29.4,24.3,11111222
Chevron,ioos:station:wmo:42385:1,2022-04-03T04:26:00Z,28.3400,-88.2657,29.4,24.3,11111222
Chevron,ioos:station:wmo:42385:1,2022-04-03T04:46:00Z,28.3400,-88.2657,29.4,24.2,11111222
Chevron,ioos:station:wmo:42385:1,2022-04-03T05:06:00Z,28.3400,-88.2657,29.4,24.2,11111222
Chevron,ioos:station:wmo:42385:1,2022-04-03T05:26:00Z,28.3400,-88.2657,29.4,24.4,11111222
Chevron,ioos:station:wmo:42385:1,2022-04-03T05:46:00Z,28.3400,-88.2657,29.4,24.2,11111222
Chevron,ioos:station:wmo:42385:1,2022-04-03T06:06:00Z,28.3400,-88.2657,29.4,24.2,11111222
Chevron,ioos:station:wmo:42385:1,2022-04-03T06:26:00Z,28.3400,-88.2657,29.4,24.3,11111222
Chevron,ioos:station:wmo:42385:1,2022-04-03T06:46:00Z,28.3400,-88.2657,29.4,24.1,11111222
Chevron,ioos:station:wmo:42385:1,2022-04-03T07:06:00Z,28.3400,-88.2657,29.4,24.3,11111222
Chevron,ioos:station:wmo:42385:1,2022-04-03T07:26:00Z,28.3400,-88.2657,29.4,24.2,11111222
Chevron,ioos:station:wmo:42385:1,2022-04-03T07:46:00Z,28.3400,-88.2657,29.4,24.2,11111222
Chevron,ioos:station:wmo:42385:1,2022-04-03T08:06:00Z,28.3400,-88.2657,29.4,24.3,11111222
Chevron,ioos:station:wmo:42385:1,2022-04-03T08:26:00Z,28.3400,-88.2657,29.4,24.1,11111222
Chevron,ioos:station:wmo:42385:1,2022-04-03T08:46:00Z,28.3400,-88.2657,29.4,24.2,11111222
Chevron,ioos:station:wmo:42385:1,2022-04-03T09:06:00Z,28.3400,-88.2657,29.4,24.1,11111222
Chevron,ioos:station:wmo:42385:1,2022-04-03T09:26:00Z,28.3400,-88.2657,29.4,24.2,11111222
Chevron,ioos:station:wmo:42385:1,2022-04-03T09:46:00Z,28.3400,-88.2657,29.4,24.2,11111222
Chevron,ioos:station:wmo:42385:1,2022-04-03T10:06:00Z,28.3400,-88.2657,29.4,24.2,11111222
Chevron,ioos:station:wmo:42385:1,2022-04-03T10:26:00Z,28.3400,-88.2657,29.4,24.3,11111222
Chevron,ioos:station:wmo:42385:1,2022-04-03T10:46:00Z,28.3400,-88.2657,29.4,24.1,11111222
Chevron,ioos:station:wmo:42385:1,2022-04-03T11:06:00Z,28.3400,-88.2657,29.4,24.1,11111222
Chevron,ioos:station:wmo:42385:1,2022-04-03T11:26:00Z,28.3400,-88.2657,29.4,24.1,11111222
Chevron,ioos:station:wmo:42385:1,2022-04-03T11:46:00Z,28.3400,-88.2657,29.4,24.3,11111222
Chevron,ioos:station:wmo:42385:1,2022-04-03T12:06:00Z,28.3400,-88.2657,29.4,24.2,11111222
Chevron,ioos:station:wmo:42385:1,2022-04-03T12:26:00Z,28.3400,-88.2657,29.4,24.2,11111222
Chevron,ioos:station:wmo:42385:1,2022-04-03T12:46:00Z,28.3400,-88.2657,29.4,24.1,11111222
Chevron,ioos:station:wmo:42385:1,2022-04-03T13:06:00Z,28.3400,-88.2657,29.4,24.1,11111222
Chevron,ioos:station:wmo:42385:1,2022-04-03T13:26:00Z,28.3400,-88.2657,29.4,24.0,11111222
Chevron,ioos:station:wmo:42385:1,2022-04-03T13:46:00Z,28.3400,-88.2657,29.4,24.0,11111222
Chevron,ioos:station:wmo:42385:1,2022-04-03T14:06:00Z,28.3400,-88.2657,29.4,25.0,11111222
Chevron,ioos:station:wmo:42385:1,2022-04-03T14:26:00Z,28.3400,-88.2657,29.4,24.0,11111222
Chevron,ioos:station:wmo:42385:1,2022-04-03T14:46:00Z,28.3400,-88.2657,29.4,24.0,11111222
Chevron,ioos:station:wmo:42385:1,2022-04-03T15:06:00Z,28.3400,-88.2657,29.4,24.0,11111222
Chevron,ioos:station:wmo:42385:1,2022-04-03T15:26:00Z,28.3400,-88.2657,29.4,24.0,11111222
Chevron,ioos:station:wmo:42385:1,2022-04-03T15:46:00Z,28.3400,-88.2657,29.4,24.0,11111222
Chevron,ioos:station:wmo:42385:1,2022-04-03T16:06:00Z,28.3400,-88.2657,29.4,24.1,11111222
Chevron,ioos:station:wmo:42385:1,2022-04-03T16:26:00Z,28.3400,-88.2657,29.4,24.1,11111222
Chevron,ioos:station:wmo:42385:1,2022-04-03T16:46:00Z,28.3400,-88.2657,29.4,24.1,11111222
Chevron,ioos:station:wmo:42385:1,2022-04-03T17:06:00Z,28.3400,-88.2657,29.4,24.2,11111222
Chevron,ioos:station:wmo:42385:1,2022-04-03T17:26:00Z,28.3400,-88.2657,29.4,24.2,11111222
Chevron,ioos:station:wmo:42385:1,2022-04-03T17:46:00Z,28.3400,-88.2657,29.4,24.1,11111222
Chevron,ioos:station:wmo:42385:1,2022-04-03T18:06:00Z,28.3400,-88.2657,29.4,24.1,11111222
Chevron,ioos:station:wmo:42385:1,2022-04-03T18:26:00Z,28.3400,-88.2657,29.4,24.1,11111222
Chevron,ioos:station:wmo:42385:1,2022-04-03T18:46:00Z,28.3400,-88.2657,29.4,23.7,11111222
Chevron,ioos:station:wmo:42385:1,2022-04-03T19:06:00Z,28.3400,-88.2657,29.4,24.0,11111222
Chevron,ioos:station:wmo:42385:1,2022-04-03T19:26:00Z,28.3400,-88.2657,29.4,24.1,11111222
Chevron,ioos:station:wmo:42385:1,2022-04-03T19:46:00Z,28.3400,-88.2657,29.4,24.3,11111222
Chevron,ioos:station:wmo:42385:1,2022-04-03T20:06:00Z,28.3400,-88.2657,29.4,24.3,11111222
Chevron,ioos:station:wmo:42385:1,2022-04-03T20:26:00Z,28.3400,-88.2657,29.4,24.3,11111222
Chevron,ioos:station:wmo:42385:1,2022-04-03T20:46:00Z,28.3400,-88.2657,29.4,24.3,11111222
Chevron,ioos:station:wmo:42385:1,2022-04-03T21:06:00Z,28.3400,-88.2657,29.4,24.2,11111222
Chevron,ioos:station:wmo:42385:1,2022-04-03T21:26:00Z,28.3400,-88.2657,29.4,24.3,11111222
Chevron,ioos:station:wmo:42385:1,2022-04-03T21:46:00Z,28.3400,-88.2657,29.4,24.3,11111222
Chevron,ioos:station:wmo:42385:1,2022-04-03T22:06:00Z,28.3400,-88.2657,29.4,24.2,11111222
Chevron,ioos:station:wmo:42385:1,2022-04-03T22:26:00Z,28.3400,-88.2657,29.4,24.3,11111222
Chevron,ioos:station:wmo:42385:1,2022-04-03T22:46:00Z,28.3400,-88.2657,29.4,24.5,11111222
Chevron,ioos:station:wmo:42385:1,2022-04-03T23:06:00Z,28.3400,-88.2657,29.4,24.3,11111222
Chevron,ioos:station:wmo:42385:1,2022-04-03T23:26:00Z,28.3400,-88.2657,29.4,24.3,11111222
Chevron,ioos:station:wmo:42385:1,2022-04-03T23:46:00Z,28.3400,-88.2657,29.4,24.1,11111222
Chevron,ioos:station:wmo:42385:1,2022-04-04T00:06:00Z,28.3400,-88.2657,29.4,24.3,11111222
Chevron,ioos:station:wmo:42385:1,2022-04-04T00:26:00Z,28.3400,-88.2657,29.4,24.1,11111222
Chevron,ioos:station:wmo:42385:1,2022-04-04T00:46:00Z,28.3400,-88.2657,29.4,24.2,11111222
Chevron,ioos:station:wmo:42385:1,2022-04-04T01:06:00Z,28.3400,-88.2657,29.4,24.1,11111222
Chevron,ioos:station:wmo:42385:1,2022-04-04T01:26:00Z,28.3400,-88.2657,29.4,24.2,11111222
Chevron,ioos:station:wmo:42385:1,2022-04-04T01:46:00Z,28.3400,-88.2657,29.4,24.2,11111222
Chevron,ioos:station:wmo:42385:1,2022-04-04T02:06:00Z,28.3400,-88.2657,29.4,24.4,11111222
Chevron,ioos:station:wmo:42385:1,2022-04-04T02:26:00Z,28.3400,-88.2657,29.4,24.1,11111222
Chevron,ioos:station:wmo:42385:1,2022-04-04T02:46:00Z,28.3400,-88.2657,29.4,24.1,11111222
Chevron,ioos:station:wmo:42385:1,2022-04-04T03:06:00Z,28.3400,-88.2657,29.4,24.1,11111222
Chevron,ioos:station:wmo:42385:1,2022-04-04T03:26:00Z,28.3400,-88.2657,29.4,24.1,11111222
Chevron,ioos:station:wmo:42385:1,2022-04-04T03:46:00Z,28.3400,-88.2657,29.4,24.0,11111222
Chevron,ioos:station:wmo:42385:1,2022-04-04T04:06:00Z,28.3400,-88.2657,29.4,24.0,11111222
Chevron,ioos:station:wmo:42385:1,2022-04-04T04:26:00Z,28.3400,-88.2657,29.4,24.1,11111222
Chevron,ioos:station:wmo:42385:1,2022-04-04T04:46:00Z,28.3400,-88.2657,29.4,24.1,11111222
Chevron,ioos:station:wmo:42385:1,2022-04-04T05:06:00Z,28.3400,-88.2657,29.4,24.0,11111222
Chevron,ioos:station:wmo:42385:1,2022-04-04T05:26:00Z,28.3400,-88.2657,29.4,24.1,11111222
Chevron,ioos:station:wmo:42385:1,2022-04-04T05:46:00Z,28.3400,-88.2657,29.4,24.1,11111222
Chevron,ioos:station:wmo:42385:1,2022-04-04T06:06:00Z,28.3400,-88.2657,29.4,24.0,11111222
Chevron,ioos:station:wmo:42385:1,2022-04-04T06:26:00Z,28.3400,-88.2657,29.4,24.1,11111222
Chevron,ioos:station:wmo:42385:1,2022-04-04T06:46:00Z,28.3400,-88.2657,29.4,24.1,11111222
Chevron,ioos:station:wmo:42385:1,2022-04-04T07:06:00Z,28.3400,-88.2657,29.4,24.1,11111222
Chevron,ioos:station:wmo:42385:1,2022-04-04T07:26:00Z,28.3400,-88.2657,29.4,24.1,11111222
Chevron,ioos:station:wmo:42385:1,2022-04-04T07:46:00Z,28.3400,-88.2657,29.4,24.1,11111222
Chevron,ioos:station:wmo:42385:1,2022-04-04T08:06:00Z,28.3400,-88.2657,29.4,24.0,11111222
Chevron,ioos:station:wmo:42385:1,2022-04-04T08:26:00Z,28.3400,-88.2657,29.4,24.1,11111222
Chevron,ioos:station:wmo:42385:1,2022-04-04T08:46:00Z,28.3400,-88.2657,29.4,23.9,11111222
Chevron,ioos:station:wmo:42385:1,2022-04-04T09:06:00Z,28.3400,-88.2657,29.4,23.9,11111222
Chevron,ioos:station:wmo:42385:1,2022-04-04T09:26:00Z,28.3400,-88.2657,29.4,24.2,11111222
Chevron,ioos:station:wmo:42385:1,2022-04-04T09:46:00Z,28.3400,-88.2657,29.4,24.0,11111222
Chevron,ioos:station:wmo:42385:1,2022-04-04T10:06:00Z,28.3400,-88.2657,29.4,24.1,11111222
Chevron,ioos:station:wmo:42385:1,2022-04-04T10:26:00Z,28.3400,-88.2657,29.4,23.9,11111222
Chevron,ioos:station:wmo:42385:1,2022-04-04T10:46:00Z,28.3400,-88.2657,29.4,23.9,11111222
Chevron,ioos:station:wmo:42385:1,2022-04-04T11:06:00Z,28.3400,-88.2657,29.4,23.9,11111222
Chevron,ioos:station:wmo:42385:1,2022-04-04T11:26:00Z,28.3400,-88.2657,29.4,23.9,11111222
Chevron,ioos:station:wmo:42385:1,2022-04-04T11:46:00Z,28.3400,-88.2657,29.4,24.0,11111222
Chevron,ioos:station:wmo:42385:1,2022-04-04T12:06:00Z,28.3400,-88.2657,29.4,24.0,11111222
Chevron,ioos:station:wmo:42385:1,2022-04-04T12:26:00Z,28.3400,-88.2657,29.4,24.1,11111222
Chevron,ioos:station:wmo:42385:1,2022-04-04T12:46:00Z,28.3400,-88.2657,29.4,24.0,11111222
Chevron,ioos:station:wmo:42385:1,2022-04-04T13:06:00Z,28.3400,-88.2657,29.4,24.2,11111222
Chevron,ioos:station:wmo:42385:1,2022-04-04T13:26:00Z,28.3400,-88.2657,29.4,24.2,11111222
Chevron,ioos:station:wmo:42385:1,2022-04-04T13:46:00Z,28.3400,-88.2657,29.4,24.2,11111222
Chevron,ioos:station:wmo:42385:1,2022-04-04T14:06:00Z,28.3400,-88.2657,29.4,24.2,11111222
Chevron,ioos:station:wmo:42385:1,2022-04-04T14:26:00Z,28.3400,-88.2657,29.4,24.2,11111222
Chevron,ioos:station:wmo:42385:1,2022-04-04T14:46:00Z,28.3400,-88.2657,29.4,24.3,11111222
Chevron,ioos:station:wmo:42385:1,2022-04-04T15:06:00Z,28.3400,-88.2657,29.4,24.2,11111222